QPF
0.00 0.00 0.00 0.00 0.00 0.00 0.00 0.00 0.00 0.00 0.00 0.00 0.00 0.00 0.00 0.00 0.00 0.00 0.00 0.00 0.00 0.00 0.00 0.00 0.00 0.00 0.00 0.00 0.00 0.00 0.00 0.00 0.00 0.00 0.00 0.00 0.00 0.00 0.00 0.00 0.00 0.00 0.00 0.00 0.00 0.00 0.00
0.00 0.01 0.00 0.00 0.00 0.00 0.00 0.00 0.00 0.00 0.00 0.00 0.00 0.00 0.00 0.00 0.00 0.00 0.00 0.00 0.00 0.00 0.00 0.00 0.00 0.00 0.00 0.00 0.00 0.00 0.00 0.00 0.00 0.00 0.00 0.00 0.00 0.00 0.00 0.00 0.00 0.00 0.00 0.00 0.00 0.00 0.00
0.01 0.00 0.00 0.00 0.00 0.00 0.00 0.00 0.00 0.00 0.00 0.00 0.00 0.00 0.00 0.00 0.00 0.00 0.00 0.00 0.00 0.00 0.00 0.00 0.00 0.00 0.00 0.00 0.00 0.00 0.00 0.00 0.00 0.00 0.00 0.00 0.00 0.00 0.00 0.00 0.00 0.00 0.00 0.00 0.00 0.00 0.00
0.01 0.01 0.00 0.00 0.00 0.00 0.00 0.00 0.00 0.00 0.00 0.00 0.00 0.00 0.00 0.00 0.00 0.00 0.00 0.00 0.00 0.00 0.00 0.01 0.00 0.00 0.00 0.00 0.00 0.00 0.00 0.00 0.00 0.00 0.00 0.00 0.00 0.00 0.00 0.00 0.00 0.00 0.00 0.00 0.00 0.00 0.00
0.00 0.00 0.00 0.00 0.00 0.00 0.00 0.00 0.00 0.00 0.00 0.00 0.00 0.00 0.00 0.00 0.00 0.00 0.00 0.00 0.00 0.00 0.01 0.00 0.00 0.00 0.00 0.00 0.00 0.00 0.00 0.00 0.00 0.00 0.00 0.00 0.00 0.00 0.00 0.00 0.00 0.00 0.00 0.00 0.00 0.00 0.00
0.00 0.00 0.01 0.01 0.00 0.00 0.00 0.00 0.00 0.00 0.00 0.00 0.00 0.00 0.00 0.00 0.00 0.00 0.00 0.00 0.00 0.00 0.00 0.00 0.00 0.00 0.00 0.00 0.00 0.00 0.00 0.00 0.00 0.00 0.00 0.00 0.00 0.00 0.00 0.00 0.00 0.00 0.00 0.00 0.00 0.00 0.00
0.00 0.00 0.00 0.01 0.01 0.00 0.00 0.00 0.00 0.00 0.00 0.00 0.00 0.00 0.00 0.00 0.00 0.00 0.00 0.00 0.00 0.00 0.00 0.00 0.00 0.00 0.00 0.00 0.00 0.00 0.00 0.00 0.00 0.00 0.00 0.00 0.00 0.00 0.00 0.00 0.00 0.00 0.00 0.00 0.00 0.00 0.00
0.01 0.01 0.00 0.01 0.01 0.00 0.00 0.00 0.01 0.00 0.00 0.00 0.00 0.00 0.00 0.00 0.00 0.00 0.00 0.00 0.00 0.00 0.00 0.00 0.00 0.00 0.00 0.00 0.00 0.00 0.00 0.00 0.00 0.00 0.00 0.00 0.00 0.00 0.00 0.00 0.00 0.00 0.00 0.00 0.00 0.00 0.00
0.03 0.02 0.01 0.00 0.00 0.00 0.00 0.00 0.00 0.00 0.00 0.00 0.00 0.00 0.00 0.00 0.00 0.00 0.00 0.00 0.00 0.00 0.00 0.00 0.00 0.00 0.00 0.00 0.00 0.00 0.00 0.00 0.00 0.00 0.00 0.00 0.00 0.00 0.00 0.00 0.00 0.00 0.00 0.00 0.00 0.00 0.00
0.03 0.03 0.03 0.03 0.02 0.01 0.00 0.00 0.00 0.00 0.00 0.00 0.00 0.00 0.00 0.00 0.00 0.00 0.00 0.00 0.00 0.00 0.00 0.00 0.00 0.00 0.00 0.00 0.00 0.00 0.00 0.00 0.00 0.00 0.00 0.00 0.00 0.00 0.00 0.00 0.00 0.00 0.00 0.00 0.00 0.00 0.00
0.01 0.03 0.03 0.03 0.03 0.03 0.02 0.01 0.00 0.00 0.00 0.00 0.00 0.00 0.00 0.00 0.00 0.00 0.00 0.00 0.00 0.00 0.00 0.00 0.00 0.00 0.00 0.00 0.00 0.00 0.00 0.00 0.00 0.00 0.00 0.00 0.00 0.00 0.00 0.00 0.00 0.00 0.00 0.00 0.00 0.00 0.00
0.03 0.02 0.02 0.03 0.02 0.02 0.02 0.02 0.01 0.00 0.00 0.00 0.00 0.00 0.00 0.00 0.00 0.00 0.00 0.00 0.00 0.00 0.00 0.00 0.00 0.00 0.00 0.00 0.00 0.00 0.00 0.00 0.00 0.00 0.00 0.00 0.00 0.00 0.00 0.00 0.00 0.00 0.00 0.00 0.00 0.00 0.00
0.04 0.05 0.04 0.02 0.01 0.02 0.02 0.01 0.01 0.00 0.00 0.00 0.00 0.00 0.00 0.00 0.00 0.00 0.00 0.01 0.00 0.00 0.00 0.00 0.00 0.00 0.00 0.00 0.00 0.00 0.00 0.00 0.00 0.00 0.00 0.00 0.00 0.00 0.00 0.00 0.00 0.00 0.00 0.01 0.00 0.00 0.00
0.05 0.04 0.04 0.05 0.04 0.02 0.01 0.01 0.01 0.01 0.00 0.00 0.00 0.00 0.00 0.00 0.00 0.00 0.02 0.02 0.00 0.00 0.00 0.00 0.00 0.00 0.00 0.00 0.00 0.00 0.00 0.00 0.00 0.00 0.00 0.00 0.00 0.00 0.00 0.00 0.00 0.00 0.00 0.01 0.00 0.00 0.00
0.05 0.06 0.04 0.04 0.04 0.03 0.02 0.02 0.01 0.01 0.01 0.01 0.00 0.00 0.00 0.00 0.00 0.01 0.03 0.03 0.00 0.00 0.00 0.00 0.00 0.00 0.00 0.00 0.00 0.00 0.00 0.00 0.00 0.00 0.00 0.00 0.00 0.00 0.00 0.00 0.00 0.00 0.00 0.00 0.01 0.00 0.00
0.05 0.05 0.07 0.05 0.05 0.04 0.02 0.01 0.02 0.02 0.02 0.01 0.00 0.00 0.00 0.00 0.00 0.03 0.06 0.01 0.00 0.00 0.00 0.00 0.00 0.00 0.00 0.00 0.00 0.00 0.00 0.00 0.00 0.00 0.00 0.00 0.00 0.00 0.00 0.00 0.00 0.00 0.00 0.00 0.00 0.00 0.00
0.03 0.03 0.04 0.05 0.04 0.03 0.02 0.02 0.02 0.03 0.03 0.01 0.00 0.01 0.00 0.01 0.05 0.07 0.04 0.00 0.00 0.00 0.00 0.00 0.00 0.00 0.00 0.00 0.00 0.00 0.00 0.00 0.00 0.00 0.00 0.00 0.00 0.00 0.00 0.00 0.00 0.00 0.00 0.00 0.00 0.00 0.00
0.01 0.01 0.03 0.03 0.03 0.02 0.02 0.01 0.02 0.04 0.06 0.03 0.02 0.01 0.00 0.02 0.06 0.03 0.01 0.00 0.00 0.00 0.00 0.00 0.00 0.00 0.00 0.00 0.00 0.00 0.00 0.00 0.00 0.00 0.00 0.00 0.02 0.00 0.00 0.00 0.01 0.01 0.00 0.01 0.00 0.00 0.00
0.02 0.02 0.02 0.03 0.03 0.02 0.02 0.01 0.02 0.05 0.05 0.02 0.02 0.00 0.00 0.04 0.03 0.01 0.00 0.00 0.00 0.00 0.00 0.00 0.00 0.00 0.00 0.00 0.00 0.00 0.00 0.00 0.00 0.01 0.02 0.05 0.05 0.01 0.00 0.00 0.00 0.00 0.00 0.00 0.00 0.00 0.00
0.05 0.04 0.02 0.02 0.02 0.01 0.01 0.00 0.01 0.04 0.06 0.03 0.01 0.00 0.00 0.04 0.01 0.00 0.00 0.00 0.00 0.00 0.00 0.01 0.01 0.00 0.00 0.00 0.00 0.00 0.00 0.00 0.00 0.01 0.02 0.05 0.02 0.01 0.00 0.00 0.00 0.00 0.00 0.00 0.01 0.01 0.00
0.04 0.04 0.03 0.03 0.02 0.01 0.00 0.00 0.01 0.03 0.06 0.06 0.01 0.00 0.00 0.00 0.00 0.00 0.00 0.00 0.00 0.00 0.01 0.01 0.01 0.00 0.00 0.01 0.00 0.00 0.00 0.00 0.00 0.01 0.01 0.05 0.03 0.01 0.00 0.00 0.00 0.00 0.00 0.00 0.00 0.00 0.00
0.03 0.05 0.05 0.03 0.02 0.01 0.00 0.01 0.01 0.03 0.05 0.07 0.02 0.00 0.00 0.00 0.00 0.00 0.00 0.00 0.00 0.00 0.01 0.01 0.01 0.00 0.03 0.01 0.00 0.00 0.00 0.00 0.01 0.00 0.01 0.02 0.02 0.00 0.00 0.00 0.01 0.00 0.00 0.00 0.00 0.00 0.00
0.03 0.02 0.04 0.03 0.02 0.01 0.00 0.02 0.03 0.02 0.03 0.01 0.01 0.00 0.00 0.00 0.00 0.00 0.00 0.00 0.00 0.00 0.00 0.00 0.00 0.01 0.01 0.00 0.00 0.01 0.01 0.01 0.01 0.01 0.01 0.01 0.00 0.00 0.00 0.00 0.01 0.01 0.00 0.00 0.00 0.00 0.00
0.03 0.04 0.03 0.03 0.02 0.00 0.00 0.02 0.04 0.04 0.02 0.00 0.00 0.00 0.00 0.00 0.00 0.00 0.00 0.00 0.00 0.00 0.00 0.00 0.00 0.00 0.00 0.00 0.00 0.00 0.00 0.00 0.00 0.00 0.00 0.01 0.00 0.01 0.00 0.00 0.00 0.00 0.00 0.00 0.00 0.00 0.00
0.03 0.03 0.03 0.02 0.01 0.00 0.01 0.02 0.03 0.03 0.03 0.00 0.00 0.00 0.00 0.00 0.00 0.00 0.00 0.00 0.00 0.00 0.00 0.00 0.00 0.00 0.03 0.04 0.02 0.01 0.00 0.00 0.00 0.00 0.00 0.00 0.01 0.01 0.00 0.00 0.00 0.00 0.00 0.00 0.00 0.00 0.00
0.01 0.01 0.01 0.02 0.01 0.01 0.01 0.03 0.03 0.03 0.03 0.01 0.00 0.01 0.01 0.00 0.00 0.00 0.00 0.00 0.00 0.00 0.00 0.00 0.00 0.00 0.01 0.04 0.04 0.02 0.01 0.00 0.00 0.00 0.00 0.00 0.00 0.01 0.00 0.00 0.00 0.00 0.00 0.00 0.00 0.00 0.00
0.00 0.00 0.00 0.00 0.01 0.01 0.01 0.02 0.02 0.03 0.03 0.02 0.00 0.00 0.02 0.01 0.00 0.00 0.00 0.00 0.00 0.00 0.00 0.00 0.01 0.01 0.01 0.01 0.01 0.01 0.00 0.00 0.00 0.00 0.00 0.00 0.00 0.00 0.00 0.00 0.00 0.00 0.00 0.00 0.00 0.00 0.00
0.00 0.00 0.00 0.00 0.00 0.00 0.01 0.01 0.02 0.02 0.04 0.04 0.00 0.01 0.01 0.01 0.00 0.00 0.00 0.00 0.01 0.01 0.00 0.00 0.01 0.00 0.01 0.01 0.01 0.00 0.00 0.00 0.00 0.00 0.00 0.00 0.00 0.00 0.00 0.00 0.00 0.00 0.00 0.00 0.00 0.00 0.00
0.01 0.02 0.01 0.01 0.00 0.00 0.00 0.00 0.01 0.02 0.03 0.05 0.01 0.01 0.03 0.01 0.00 0.00 0.00 0.00 0.00 0.01 0.00 0.00 0.00 0.00 0.00 0.00 0.00 0.00 0.00 0.00 0.00 0.00 0.00 0.00 0.00 0.00 0.00 0.00 0.00 0.00 0.00 0.00 0.00 0.00 0.00
MSLP
1015.05 1015.30 1015.50 1015.80 1016.22 1016.54 1016.69 1016.67 1017.03 1017.20 1017.58 1017.52 1017.49 1017.73 1017.63 1017.94 1017.85 1017.79 1017.72 1017.62 1017.45 1017.68 1017.18 1017.15 1016.92 1016.87 1016.50 1016.62 1014.43 1013.43 1013.38 1012.96 1012.92 1013.06 1013.28 1013.45 1013.62 1013.91 1014.10 1014.16 1014.64 1014.75 1014.43 1014.23 1014.12 1013.87 1013.54
1015.07 1015.21 1015.57 1015.76 1016.05 1016.38 1016.53 1016.68 1016.82 1017.02 1017.41 1017.35 1017.42 1017.54 1017.54 1017.80 1017.78 1017.72 1017.56 1017.43 1017.48 1017.39 1017.10 1017.07 1017.08 1017.04 1017.01 1016.29 1013.29 1013.29 1013.61 1013.34 1013.41 1013.46 1013.57 1013.70 1013.73 1014.01 1014.27 1014.34 1014.70 1014.68 1014.75 1014.51 1014.04 1013.77 1013.34
1014.87 1015.07 1015.27 1015.68 1015.80 1016.21 1016.40 1016.48 1016.65 1016.70 1017.01 1017.21 1017.32 1017.36 1017.50 1017.63 1017.65 1017.36 1017.41 1017.38 1017.33 1017.19 1016.88 1017.01 1017.12 1017.16 1016.93 1014.74 1013.33 1013.59 1013.63 1013.58 1013.65 1013.92 1013.97 1013.90 1014.01 1014.16 1014.30 1014.52 1014.73 1014.90 1015.09 1014.65 1013.96 1013.74 1013.38
1014.62 1014.94 1014.62 1015.24 1015.62 1015.71 1016.32 1016.33 1016.60 1016.60 1016.52 1016.89 1017.21 1017.34 1017.26 1017.37 1017.48 1017.24 1017.24 1017.18 1017.05 1016.94 1016.80 1016.93 1017.16 1017.19 1016.20 1013.73 1013.56 1013.32 1013.61 1013.48 1013.59 1013.86 1014.17 1013.96 1014.18 1014.50 1014.63 1014.72 1015.09 1015.52 1015.79 1015.51 1014.27 1014.15 1013.70
1014.16 1014.37 1014.44 1014.72 1015.17 1015.43 1015.89 1016.05 1016.45 1016.33 1016.39 1016.51 1016.89 1017.20 1017.18 1017.18 1017.30 1017.07 1017.04 1016.97 1016.82 1016.66 1016.81 1017.32 1017.36 1017.40 1015.22 1013.49 1013.38 1012.43 1013.19 1013.06 1013.31 1013.69 1014.00 1014.13 1014.30 1014.78 1015.03 1015.74 1016.47 1016.67 1016.76 1016.41 1015.42 1014.37 1014.49
1013.54 1013.82 1013.98 1014.26 1014.64 1015.10 1015.43 1015.80 1016.17 1016.31 1016.03 1016.22 1016.77 1016.96 1017.04 1017.11 1017.08 1016.95 1016.88 1017.05 1017.12 1017.04 1017.29 1017.36 1017.35 1017.76 1014.58 1013.08 1012.46 1012.40 1012.88 1012.75 1012.88 1013.68 1014.14 1014.72 1015.20 1015.56 1015.96 1016.44 1017.15 1017.17 1017.20 1017.01 1016.41 1015.20 1014.85
1012.75 1013.15 1013.34 1013.70 1014.17 1014.84 1015.16 1015.47 1015.81 1015.79 1015.93 1015.92 1016.66 1016.72 1016.99 1016.96 1016.98 1016.84 1017.09 1017.38 1017.70 1017.45 1017.32 1015.97 1015.63 1014.97 1013.81 1013.03 1012.22 1012.08 1012.29 1012.84 1013.00 1013.72 1014.44 1014.87 1015.83 1015.88 1015.37 1015.91 1016.73 1017.23 1017.27 1017.19 1016.75 1016.03 1015.66
1012.20 1012.35 1012.70 1013.17 1013.75 1014.29 1014.78 1015.05 1015.30 1015.34 1015.59 1015.95 1016.33 1016.51 1016.89 1016.95 1016.71 1016.89 1017.12 1017.23 1016.54 1016.50 1016.31 1015.09 1014.82 1014.83 1013.72 1013.75 1013.17 1012.17 1012.13 1012.82 1013.22 1013.88 1014.45 1015.23 1015.35 1015.22 1015.59 1016.06 1016.75 1017.12 1017.47 1017.44 1016.78 1016.01 1015.96
1011.62 1012.00 1012.23 1012.54 1013.17 1013.56 1014.09 1014.67 1014.88 1015.24 1015.37 1015.59 1016.16 1016.18 1016.71 1016.84 1016.59 1016.88 1017.09 1016.68 1016.22 1015.91 1016.34 1014.02 1013.64 1013.78 1013.47 1013.67 1013.45 1012.08 1012.29 1012.41 1013.12 1013.99 1014.31 1014.64 1014.52 1014.39 1015.30 1015.91 1016.46 1016.79 1017.27 1017.22 1017.04 1016.53 1016.20
1011.18 1011.51 1011.77 1012.16 1012.43 1012.96 1013.46 1014.10 1014.34 1014.86 1015.17 1015.20 1015.77 1016.27 1016.41 1016.57 1017.02 1016.66 1016.88 1016.51 1016.22 1016.26 1016.07 1013.57 1012.94 1012.26 1012.55 1012.57 1012.51 1011.46 1011.69 1012.03 1013.13 1013.60 1014.45 1014.63 1013.98 1014.58 1015.23 1015.41 1015.83 1016.46 1016.29 1016.86 1017.16 1017.53 1017.54
1010.54 1010.93 1011.20 1011.47 1011.90 1012.45 1012.98 1013.31 1014.01 1014.22 1014.57 1015.15 1015.32 1015.88 1016.55 1016.43 1016.37 1016.61 1016.34 1016.10 1016.36 1016.40 1015.53 1012.21 1011.75 1011.37 1011.72 1012.08 1011.38 1011.44 1011.24 1011.50 1012.50 1013.41 1014.03 1014.21 1014.12 1014.39 1015.01 1014.84 1015.36 1015.69 1015.85 1016.53 1017.38 1017.99 1018.21
1009.82 1010.16 1010.37 1010.68 1011.22 1011.80 1012.28 1012.83 1013.28 1013.69 1014.29 1014.63 1015.10 1015.59 1016.22 1016.53 1016.31 1015.96 1015.83 1016.12 1016.64 1017.08 1013.57 1011.43 1011.44 1011.51 1011.87 1011.70 1011.20 1011.56 1011.61 1011.48 1012.33 1013.33 1013.86 1013.98 1014.02 1014.19 1014.22 1014.57 1014.93 1015.43 1016.20 1016.86 1017.74 1018.47 1018.49
1009.30 1009.34 1009.71 1009.95 1010.39 1011.06 1011.55 1012.17 1012.57 1013.05 1013.75 1014.40 1014.77 1015.34 1015.92 1015.80 1015.78 1015.62 1015.99 1016.44 1017.11 1015.77 1011.58 1010.98 1010.90 1011.07 1011.28 1011.39 1011.21 1011.34 1011.92 1012.06 1012.50 1013.66 1013.84 1013.78 1013.76 1013.79 1013.87 1014.60 1015.20 1015.46 1016.37 1017.40 1017.97 1018.59 1018.11
1008.46 1008.70 1009.02 1009.38 1009.86 1010.22 1010.88 1011.40 1011.96 1012.42 1013.27 1014.09 1014.60 1014.99 1015.30 1015.53 1015.28 1015.65 1016.13 1016.64 1016.09 1012.36 1011.48 1010.47 1010.09 1010.45 1010.81 1010.85 1010.98 1011.17 1011.92 1012.52 1012.54 1012.79 1013.30 1013.39 1013.45 1013.26 1013.37 1013.63 1014.55 1015.49 1015.98 1016.74 1017.30 1017.86 1017.98
1008.21 1008.21 1008.40 1008.75 1009.09 1009.58 1010.05 1010.64 1011.40 1012.05 1012.80 1013.68 1014.44 1015.04 1015.23 1014.72 1015.03 1015.69 1015.86 1015.75 1013.77 1012.04 1010.99 1010.47 1010.11 1010.16 1010.49 1010.44 1010.66 1011.07 1011.62 1011.73 1011.59 1012.03 1012.55 1012.86 1012.89 1012.70 1012.87 1013.23 1013.92 1015.50 1015.75 1016.01 1016.93 1017.68 1017.92
1007.90 1007.75 1007.73 1008.00 1008.58 1008.88 1009.42 1010.06 1010.83 1011.57 1012.28 1013.16 1014.28 1014.83 1014.11 1013.83 1014.49 1015.43 1015.38 1014.13 1012.45 1011.52 1010.84 1010.48 1010.44 1010.22 1010.34 1010.39 1010.70 1010.90 1011.04 1010.52 1010.81 1010.83 1010.98 1011.86 1012.42 1012.42 1012.83 1013.22 1014.09 1014.31 1014.99 1016.24 1016.99 1017.38 1017.32
1007.24 1007.17 1007.52 1007.22 1007.66 1008.32 1008.87 1009.68 1010.33 1011.00 1011.65 1012.81 1013.97 1014.39 1013.28 1013.36 1014.23 1014.82 1013.90 1012.78 1011.80 1011.05 1011.10 1011.13 1010.76 1010.64 1010.59 1010.48 1010.53 1010.71 1010.39 1010.10 1010.01 1010.45 1010.77 1011.50 1012.28 1012.80 1012.95 1013.05 1013.46 1014.58 1014.85 1015.26 1015.98 1016.79 1016.80
1006.17 1006.12 1006.65 1006.84 1007.09 1007.51 1008.21 1009.12 1010.00 1010.63 1011.29 1012.38 1013.43 1013.91 1013.17 1013.22 1013.63 1013.83 1013.30 1012.00 1011.96 1011.15 1011.39 1011.27 1011.06 1010.96 1010.89 1010.88 1010.77 1010.69 1010.50 1010.18 1010.01 1010.25 1011.15 1011.38 1011.91 1012.38 1012.45 1012.60 1012.74 1013.30 1013.85 1014.28 1015.22 1015.98 1016.32
1005.41 1005.55 1006.03 1005.57 1005.97 1007.01 1007.81 1008.45 1009.26 1009.90 1010.69 1011.81 1012.68 1013.23 1013.30 1013.19 1012.90 1012.88 1012.75 1012.23 1011.97 1011.54 1011.56 1011.48 1011.18 1011.04 1010.92 1011.12 1011.27 1010.79 1010.46 1010.09 1010.24 1010.64 1010.98 1011.65 1012.60 1012.98 1012.95 1013.42 1013.46 1013.18 1013.01 1013.17 1013.85 1014.69 1014.61
1004.81 1005.00 1005.48 1005.18 1005.35 1006.47 1007.28 1007.65 1008.55 1009.35 1010.17 1011.32 1012.35 1012.88 1013.49 1012.89 1012.60 1012.57 1012.55 1012.29 1011.75 1011.47 1011.70 1011.57 1011.29 1011.15 1011.43 1011.44 1011.38 1010.96 1010.73 1010.72 1010.81 1010.90 1011.12 1011.76 1012.32 1012.50 1012.60 1012.70 1012.92 1013.28 1012.95 1012.91 1013.49 1013.89 1013.41
1004.12 1004.11 1004.39 1004.88 1005.32 1005.97 1006.42 1007.01 1007.79 1008.75 1009.68 1010.69 1011.48 1011.45 1011.39 1012.05 1012.24 1012.36 1012.22 1011.78 1011.50 1011.20 1011.16 1011.57 1011.61 1011.31 1011.67 1011.73 1011.48 1011.28 1011.18 1011.37 1011.36 1011.40 1011.84 1012.09 1012.65 1012.92 1012.47 1012.46 1012.69 1012.85 1012.75 1012.54 1012.77 1012.71 1013.14
1003.53 1003.77 1003.92 1004.25 1004.90 1005.63 1006.10 1006.50 1007.29 1008.23 1009.21 1009.85 1010.68 1010.99 1011.41 1011.64 1011.72 1012.07 1012.19 1011.72 1011.41 1011.20 1011.24 1011.30 1011.27 1011.26 1011.47 1011.70 1011.56 1011.41 1011.43 1011.55 1011.66 1011.90 1012.35 1012.55 1012.78 1013.01 1012.81 1012.54 1012.79 1012.83 1012.24 1012.17 1012.35 1012.36 1012.49
1002.62 1002.89 1002.79 1003.29 1004.51 1005.30 1005.75 1006.38 1007.24 1007.74 1009.03 1009.54 1010.30 1010.29 1010.59 1011.28 1011.67 1011.84 1011.38 1010.90 1010.73 1011.43 1011.14 1010.99 1011.36 1011.57 1011.48 1011.14 1011.34 1011.46 1011.78 1011.74 1011.75 1012.10 1012.30 1012.89 1013.14 1013.32 1012.82 1012.66 1012.92 1012.77 1011.19 1011.38 1011.53 1011.83 1011.90
1002.41 1002.73 1003.15 1003.36 1004.29 1004.92 1005.47 1006.04 1006.96 1007.63 1008.50 1009.81 1010.17 1010.59 1010.66 1011.16 1011.34 1011.04 1010.88 1011.05 1010.94 1011.18 1011.05 1010.91 1011.01 1011.15 1011.04 1011.00 1011.40 1011.66 1011.90 1011.88 1011.58 1011.14 1011.39 1012.29 1013.03 1013.07 1012.97 1013.08 1012.66 1011.39 1011.07 1010.81 1011.07 1011.45 1012.03
1002.63 1002.63 1002.99 1003.49 1004.13 1004.83 1005.37 1006.12 1006.53 1007.24 1008.38 1009.70 1009.93 1010.41 1010.36 1010.97 1010.86 1011.03 1011.02 1010.78 1010.92 1011.45 1010.92 1011.06 1010.92 1010.85 1010.99 1011.36 1011.96 1012.10 1012.12 1011.92 1010.80 1010.87 1011.17 1011.02 1012.42 1013.04 1013.26 1013.01 1012.07 1011.58 1011.30 1011.32 1011.48 1012.00 1012.66
1002.49 1002.75 1002.97 1003.49 1004.21 1004.75 1005.34 1005.85 1006.38 1007.20 1008.10 1009.22 1009.95 1010.13 1010.52 1010.72 1010.39 1010.27 1010.55 1010.71 1011.16 1011.23 1011.16 1010.57 1010.60 1010.61 1011.24 1011.95 1011.88 1011.66 1011.32 1010.76 1010.88 1010.92 1011.25 1011.32 1011.57 1012.80 1013.50 1013.32 1012.67 1011.76 1011.30 1011.40 1011.76 1012.58 1013.09
1002.49 1002.78 1003.20 1003.68 1004.21 1004.75 1005.14 1005.61 1006.34 1007.01 1007.82 1008.78 1009.35 1009.76 1010.36 1010.45 1010.09 1009.92 1009.98 1010.07 1010.63 1010.83 1010.71 1010.50 1010.55 1010.83 1011.07 1011.53 1011.85 1011.44 1010.68 1010.12 1010.39 1010.66 1010.99 1011.68 1012.29 1012.54 1013.08 1013.29 1012.50 1011.69 1011.75 1012.16 1013.28 1013.68 1013.67
1002.52 1002.85 1003.24 1003.61 1004.04 1004.42 1004.85 1005.43 1006.13 1006.74 1007.40 1008.50 1009.15 1009.35 1009.84 1010.30 1009.99 1009.57 1009.40 1009.49 1009.62 1010.19 1010.27 1010.49 1010.70 1010.46 1011.04 1011.12 1011.20 1010.78 1010.23 1009.74 1010.10 1010.32 1010.51 1011.03 1012.01 1012.53 1013.26 1013.61 1013.29 1011.98 1012.67 1013.28 1013.61 1014.28 1014.84
1001.95 1002.38 1002.73 1003.09 1003.54 1003.98 1004.51 1005.15 1005.83 1006.50 1007.12 1008.10 1008.92 1009.01 1009.60 1010.18 1009.97 1009.48 1009.14 1008.92 1008.99 1009.21 1009.42 1009.71 1009.60 1009.65 1009.58 1010.09 1010.44 1010.26 1009.91 1009.93 1009.69 1010.49 1010.40 1011.02 1010.59 1011.72 1012.51 1012.57 1012.70 1012.79 1013.09 1013.51 1014.03 1014.81 1015.91
Thickness
5593 5593 5596 5596 5595 5596 5597 5602 5600 5601 5600 5605 5607 5608 5611 5610 5612 5615 5618 5620 5623 5623 5629 5630 5633 5635 5639 5636 5648 5665 5667 5671 5672 5671 5667 5664 5660 5657 5653 5657 5653 5652 5659 5660 5662 5664 5666
5578 5580 5581 5584 5583 5584 5585 5588 5589 5591 5590 5595 5596 5598 5601 5600 5603 5605 5609 5611 5613 5615 5620 5621 5623 5625 5627 5626 5656 5659 5656 5660 5660 5660 5659 5656 5654 5653 5648 5650 5645 5647 5647 5648 5656 5658 5659
5565 5567 5569 5570 5572 5573 5575 5578 5579 5582 5581 5583 5585 5588 5590 5590 5593 5599 5599 5600 5603 5607 5612 5612 5614 5616 5616 5630 5649 5648 5649 5650 5650 5649 5647 5648 5647 5644 5644 5640 5642 5640 5633 5637 5647 5650 5650
5554 5554 5560 5558 5559 5564 5561 5565 5567 5569 5574 5574 5573 5575 5580 5582 5583 5588 5589 5590 5594 5597 5601 5603 5604 5607 5609 5636 5638 5641 5640 5641 5641 5641 5638 5640 5639 5634 5633 5635 5625 5624 5617 5613 5635 5635 5641
5543 5545 5548 5548 5549 5551 5552 5554 5553 5558 5561 5563 5564 5564 5568 5571 5572 5577 5578 5579 5583 5588 5590 5588 5592 5594 5606 5627 5628 5638 5633 5636 5634 5631 5628 5631 5628 5621 5622 5607 5597 5597 5592 5598 5609 5626 5622
5530 5531 5534 5536 5537 5537 5539 5540 5540 5543 5550 5552 5551 5553 5556 5559 5562 5566 5566 5567 5569 5574 5575 5576 5579 5580 5605 5622 5627 5628 5624 5629 5629 5621 5618 5614 5601 5599 5595 5589 5580 5584 5584 5584 5589 5608 5607
5516 5517 5520 5521 5522 5523 5525 5527 5528 5533 5537 5540 5537 5542 5543 5548 5549 5554 5554 5554 5554 5557 5562 5576 5583 5591 5605 5612 5619 5622 5621 5616 5617 5612 5601 5600 5586 5584 5597 5589 5583 5579 5579 5577 5579 5589 5589
5498 5504 5507 5508 5509 5509 5510 5512 5516 5522 5524 5526 5527 5531 5531 5535 5540 5541 5542 5541 5549 5556 5560 5574 5579 5581 5593 5594 5596 5610 5612 5605 5602 5594 5594 5586 5577 5588 5588 5581 5576 5572 5566 5563 5571 5581 5583
5483 5486 5492 5493 5494 5497 5498 5497 5502 5505 5509 5513 5513 5519 5519 5522 5529 5529 5528 5534 5542 5549 5543 5576 5577 5579 5583 5581 5583 5596 5600 5598 5593 5585 5584 5575 5586 5591 5582 5573 5569 5563 5557 5558 5559 5568 5572
5461 5466 5473 5475 5479 5483 5484 5484 5488 5490 5494 5500 5500 5501 5507 5511 5513 5515 5517 5523 5531 5533 5506 5565 5574 5579 5579 5580 5579 5594 5592 5591 5582 5574 5570 5571 5584 5578 5569 5569 5564 5555 5561 5554 5554 5550 5538
5444 5448 5452 5458 5463 5465 5468 5472 5472 5477 5482 5483 5485 5487 5488 5497 5502 5499 5507 5514 5515 5518 5500 5575 5569 5579 5576 5575 5587 5586 5589 5585 5572 5566 5565 5563 5568 5565 5558 5565 5559 5555 5559 5552 5543 5533 5528
5427 5431 5437 5441 5444 5447 5451 5455 5459 5461 5463 5468 5469 5473 5475 5480 5487 5487 5494 5498 5497 5468 5501 5559 5561 5560 5557 5567 5576 5572 5573 5578 5570 5561 5558 5556 5560 5557 5556 5556 5554 5549 5543 5535 5514 5505 5513
5407 5416 5421 5428 5431 5432 5436 5440 5446 5448 5450 5451 5453 5456 5462 5472 5471 5474 5476 5479 5469 5459 5554 5554 5556 5555 5554 5555 5561 5562 5555 5554 5549 5536 5540 5552 5550 5552 5554 5545 5538 5538 5531 5508 5499 5500 5513
5395 5401 5408 5413 5418 5424 5426 5429 5433 5436 5436 5434 5437 5444 5452 5460 5456 5457 5458 5460 5458 5526 5528 5546 5553 5549 5548 5552 5553 5551 5538 5532 5543 5545 5524 5528 5539 5540 5544 5544 5531 5513 5521 5518 5511 5493 5501
5377 5387 5395 5400 5406 5411 5419 5422 5422 5424 5424 5421 5423 5429 5440 5451 5443 5440 5443 5442 5473 5509 5530 5530 5540 5539 5541 5549 5546 5542 5532 5528 5540 5538 5534 5522 5531 5538 5535 5535 5530 5510 5514 5514 5496 5486 5484
5358 5371 5383 5390 5395 5400 5404 5409 5413 5414 5413 5413 5411 5414 5436 5439 5434 5426 5427 5448 5489 5507 5515 5516 5516 5525 5526 5533 5529 5527 5526 5541 5541 5540 5542 5533 5524 5532 5527 5527 5517 5515 5509 5489 5481 5496 5494
5344 5355 5366 5380 5388 5389 5391 5394 5400 5403 5403 5402 5399 5405 5427 5429 5419 5411 5422 5453 5485 5499 5496 5498 5503 5511 5519 5524 5519 5513 5523 5535 5538 5533 5533 5524 5519 5520 5518 5518 5509 5499 5497 5497 5491 5484 5484
5334 5347 5356 5366 5373 5379 5380 5381 5385 5390 5391 5389 5389 5397 5413 5411 5408 5404 5417 5460 5473 5482 5479 5480 5489 5493 5503 5509 5509 5511 5511 5519 5525 5523 5516 5517 5504 5511 5515 5514 5514 5510 5507 5501 5487 5477 5472
5324 5338 5349 5363 5367 5367 5368 5371 5375 5378 5379 5380 5380 5390 5394 5395 5401 5407 5420 5443 5452 5463 5464 5467 5474 5483 5490 5492 5490 5496 5504 5513 5510 5511 5506 5504 5488 5489 5477 5489 5493 5502 5508 5508 5500 5484 5491
5314 5329 5342 5351 5355 5355 5358 5363 5365 5368 5370 5367 5364 5372 5370 5380 5391 5407 5413 5418 5433 5450 5450 5454 5462 5471 5471 5472 5476 5480 5495 5496 5496 5500 5502 5498 5485 5496 5498 5498 5486 5477 5490 5498 5496 5483 5494
5307 5325 5336 5338 5343 5346 5350 5355 5357 5361 5362 5358 5358 5364 5374 5374 5384 5393 5404 5416 5425 5436 5443 5443 5439 5451 5452 5452 5461 5462 5473 5478 5482 5487 5480 5477 5482 5471 5482 5483 5480 5478 5484 5490 5489 5493 5485
5301 5316 5322 5328 5334 5336 5341 5346 5348 5352 5354 5353 5349 5356 5366 5371 5385 5384 5386 5396 5409 5424 5428 5428 5433 5443 5445 5441 5453 5460 5464 5459 5461 5464 5461 5459 5456 5458 5464 5473 5472 5467 5475 5473 5476 5480 5478
5301 5311 5325 5329 5326 5328 5333 5337 5338 5342 5338 5337 5342 5353 5356 5360 5366 5376 5387 5406 5415 5409 5418 5428 5427 5423 5424 5440 5439 5443 5438 5444 5455 5450 5444 5444 5444 5446 5461 5460 5449 5457 5484 5481 5479 5472 5482
5300 5305 5314 5319 5318 5320 5324 5329 5329 5328 5329 5329 5335 5342 5351 5353 5359 5376 5386 5389 5395 5398 5404 5416 5415 5415 5430 5425 5423 5423 5423 5428 5440 5452 5450 5438 5435 5441 5449 5444 5450 5469 5459 5474 5478 5469 5460
5293 5303 5306 5309 5310 5312 5316 5317 5320 5321 5319 5318 5327 5332 5340 5342 5359 5363 5369 5379 5380 5381 5396 5398 5408 5413 5412 5412 5412 5414 5418 5418 5437 5435 5437 5440 5428 5432 5432 5436 5447 5451 5453 5444 5449 5455 5440
5287 5292 5296 5300 5302 5305 5307 5311 5314 5313 5313 5311 5314 5324 5330 5332 5344 5365 5364 5368 5364 5368 5375 5390 5400 5398 5398 5395 5401 5410 5411 5437 5434 5431 5436 5433 5434 5431 5415 5407 5411 5428 5447 5447 5447 5433 5429
5281 5285 5289 5293 5295 5298 5303 5305 5306 5307 5307 5307 5312 5318 5321 5332 5343 5350 5357 5365 5364 5365 5363 5383 5387 5388 5390 5388 5389 5403 5418 5432 5430 5428 5426 5423 5417 5425 5414 5412 5418 5429 5436 5436 5416 5430 5422
5278 5282 5286 5288 5291 5295 5298 5299 5300 5302 5304 5302 5307 5313 5318 5323 5334 5346 5356 5361 5369 5365 5370 5379 5382 5384 5381 5386 5394 5402 5398 5420 5418 5406 5425 5427 5418 5415 5414 5407 5400 5426 5426 5423 5410 5397 5398
5283 5284 5284 5285 5286 5290 5293 5294 5295 5298 5300 5300 5301 5311 5314 5316 5330 5340 5350 5357 5365 5371 5372 5374 5382 5380 5382 5384 5390 5398 5410 5397 5410 5404 5417 5416 5408 5396 5410 5403 5395 5400 5401 5395 5397 5390 5379